Location: *
(46.0770°N, 1.6444°E)
Time: 05:31:54
(UTC+00:00)

Resurs 01 Rocket - Pass Details

Date: 16 September 2019
Orbit: 635 x 644 km, 98.0° (Epoch: 18 October)

Event Time Altitude Azimuth Distance (km) Brightness Sun altitude
Exits shadow 21:33:32 16° 265° (W) 1,693 4.1 -33.1°
Maximum altitude 21:33:49 16° 270° (W) 1,690 4.2 -33.1°
Drops below altitude 10° 21:36:30 10° 307° (NW) 2,042 5.0 -33.4°
Sets 21:39:34 0° 330° (NNW) 2,960 6.1 -33.7°
